Location: Anjeux
(47.8815°N, 6.2076°E)
Time: 15:23:57
(UTC+00:00)

Cosmos 1833 - Pass Details

Date: 05 March 2021
Orbit: 836 x 862 km, 70.9° (Epoch: 15 April)

Event Time Altitude Azimuth Distance (km) Brightness Sun altitude
Exits shadow 04:35:48 15° 217° (SW) 2,144 5.9 -16.3°
Maximum altitude 04:40:35 71° 300° (WNW) 889 4.1 -15.5°
Drops below altitude 10° 04:46:13 10° 24° (NNE) 2,459 7.0 -14.5°
Sets 04:48:41 0° 27° (NNE) 3,398 7.8 -14.1°
